Powrót do katalogu

FENGYUN 1C DEB

AktywnyPO
NORAD 37694·DEBRIS·🇨🇳 China

Wystrzelony May 10, 1999 z Taiyuan Satellite Launch Center

Loading…

Następne Przeloty (najbliższe 24 godziny)

TLE

ŚwieżeSource: Space-Track

Epoka: Sep 13, 2026, 08:34 UTC

1 37694U 99025ELK 26256.35733947  .00001985  00000-0  88299-3 0  9998
2 37694  98.1836 307.7623 0144075  13.5577  46.4860 14.18510330555956

Śledź FENGYUN 1C DEB w czasie rzeczywistym z AllMySat

Download on the App Store